Brownsville, TX

10:32 AM CDT on August 24, 2016 (GMT -0500)
Brownsville-South Padre I International

Weather History for KBRO - March, 2014

Change the Weather History Date:

Thursday, March 13, 2014

  Actual Average Record
Temperature  
Mean Temperature 62 °F 69 °F  
Max Temperature 73 °F 78 °F 92 °F (2005)
Min Temperature 51 °F 59 °F 32 °F (1932)
Degree Days  
Heating Degree Days 3 2  
Month to date heating degree days 26  
Since 1 July heating degree days 529  
Cooling Degree Days 0 5  
Month to date cooling degree days 60  
Year to date cooling degree days 201  
Growing Degree Days 12 (Base 50)    
Moisture  
Dew Point 49 °F    
Average Humidity 65    
Maximum Humidity 90    
Minimum Humidity 40    
Precipitation  
Precipitation 0.00 in 0.03 in 1.60 in (1903)
Month to date precipitation 0.46  
Year to date precipitation 2.81  
Sea Level Pressure  
Sea Level Pressure 30.23 in    
Wind  
Wind Speed 7 mph (NE)    
Max Wind Speed 13 mph    
Max Gust Speed 16 mph    
Visibility 10 miles    
Events Rain    
T = Trace of Precipitation, MM = Missing Value Source: NWS Daily Summary

Daily Weather History Graph

Daily Weather History Graph

Search for Another Location

Airport or City:

Trip Planner

Search our weather history database for the weather conditions in past years. The results will help you decide how hot, cold, wet, or windy it might be!

Date:

Astronomy

Mar. 13, 2014 Rise Set
Actual Time 7:40 AM CDT 7:37 PM CDT
Civil Twilight 7:17 AM CDT 8:00 PM CDT
Nautical Twilight 6:51 AM CDT 8:27 PM CDT
Astronomical Twilight 6:24 AM CDT 8:54 PM CDT
Moon 5:15 PM CDT (3/13) 5:35 AM CDT (3/13)
Length of Visible Light 12h 42m
Length of Day
11h 56m
Waxing Gibbous, 91% of the Moon is Illuminated
Mar 13
Waxing Gibbous
Mar 16
Full
Mar 23
Last Quarter
Mar 30
New
Apr 7
First Quarter

Hourly Weather History & Observations

Time (CDT) Temp. Dew Point Humidity Pressure Visibility Wind Dir Wind Speed Gust Speed Precip Events Conditions
12:53 AM 54.0 °F 46.9 °F 77% 30.26 in 10.0 mi NNW 4.6 mph - N/A   Clear
1:53 AM 54.0 °F 44.1 °F 69% 30.26 in 10.0 mi North 5.8 mph - N/A   Clear
2:53 AM 55.0 °F 43.0 °F 64% 30.25 in 10.0 mi North 8.1 mph - N/A   Clear
3:53 AM 54.0 °F 43.0 °F 66% 30.24 in 10.0 mi North 6.9 mph - N/A   Clear
4:53 AM 52.0 °F 43.0 °F 71% 30.24 in 10.0 mi NNW 8.1 mph - N/A   Clear
5:53 AM 51.1 °F 43.0 °F 74% 30.26 in 10.0 mi NNW 5.8 mph - N/A   Clear
6:53 AM 51.1 °F 43.0 °F 74% 30.27 in 10.0 mi NNW 6.9 mph - N/A   Partly Cloudy
7:53 AM 52.0 °F 43.0 °F 71% 30.28 in 10.0 mi NNW 6.9 mph - N/A   Scattered Clouds
8:45 AM 55.4 °F 46.4 °F 72% 30.30 in 10.0 mi North 6.9 mph - N/A   Partly Cloudy
8:53 AM 55.9 °F 46.0 °F 69% 30.30 in 10.0 mi NNW 8.1 mph - N/A   Partly Cloudy
9:53 AM 62.1 °F 50.0 °F 65% 30.32 in 10.0 mi North 4.6 mph - N/A   Clear
10:53 AM 66.0 °F 50.0 °F 56% 30.31 in 10.0 mi NE 11.5 mph - N/A   Clear
11:53 AM 70.0 °F 51.1 °F 51% 30.30 in 10.0 mi ENE 11.5 mph - 0.00 in   Scattered Clouds
12:53 PM 69.1 °F 50.0 °F 51% 30.28 in 10.0 mi Variable 5.8 mph - 0.00 in Rain Light Rain
1:53 PM 72.0 °F 51.1 °F 48% 30.25 in 10.0 mi Variable 4.6 mph 16.1 mph 0.00 in Rain Light Rain
2:53 PM 70.0 °F 51.1 °F 51% 30.20 in 10.0 mi East 12.7 mph - 0.00 in Rain Light Rain
3:53 PM 69.1 °F 51.1 °F 53% 30.18 in 10.0 mi ESE 10.4 mph - 0.00 in   Mostly Cloudy
4:53 PM 68.0 °F 52.0 °F 56% 30.16 in 10.0 mi East 11.5 mph - N/A   Mostly Cloudy
5:53 PM 69.1 °F 53.1 °F 57% 30.16 in 10.0 mi East 9.2 mph - N/A   Overcast
6:53 PM 66.9 °F 52.0 °F 59% 30.15 in 10.0 mi East 9.2 mph - N/A   Clear
7:53 PM 63.0 °F 53.1 °F 70% 30.16 in 10.0 mi East 5.8 mph - N/A   Clear
8:53 PM 61.0 °F 54.0 °F 78% 30.16 in 10.0 mi East 4.6 mph - N/A   Clear
9:53 PM 59.0 °F 55.0 °F 87% 30.15 in 10.0 mi East 5.8 mph - N/A   Clear
10:53 PM 60.1 °F 55.9 °F 86% 30.14 in 10.0 mi ESE 5.8 mph - N/A   Clear
11:53 PM 59.0 °F 55.9 °F 90% 30.12 in 10.0 mi ESE 4.6 mph - N/A   Clear